Погода Александров Гай

Погода Александров Гай : погода сейчас, прогноз погоды и архив. Всё, что Вы хотите узнать о погоде Александров Гай!

Хотите узнать прогноз погоды Александров Гай? Тогда Вам сюда: Погода Александров Гай

Поиск расширенной информации на нашем сайте:

Другие новости

Новости СМИ2

Главная страница сайта

Новости сайта

03.07.2017

Напоминаем, что на нашем специализированном сайте Метеоцентр.Азия вы можете получить высокодетализированные автоматические прогнозы погоды по пунктам России, СНГ и мира в авиационном формате (включающие направление и скорость ветра, видимость, явления погоды, количество и форму облачности, нижнюю и верхнюю границу облачности).


Погода Александров Гай - сегодня

Время (UTC), дата Ветер
(°,м/с) 
Видим.   Явления Облачность Т
(°С)
Тd
(°С)
f(%) Тe
(°С)
Pmin
(гПа)
dP
(гПа)
Po
(мм)
O2
(г/м3)
Тmin Tmax R s Состояние
почвы
06 19.07.18 090 (В) 10 км  {ливн. осадки}  8/6 1000 м средняя, верхняя 
[Cu med, cong|Ac As|Ci fib]
+29.8 +18.2 50 +44  1006.2  -0.3  753  269           
15 19.07.18 090 (В) 3{18}  10 км  ливневой дождь, в посл. час гроза  9/8 1000 м кучево-дожд., средняя 
[Cb cap|Ac As]
+21.7 +18.4 82 +37  1005.8  0.8  752  277    +35     
18 19.07.18 060 (СВ) 10 км  {гроза, ливн. осадки}  9/6 1000 м кучево-дожд., средняя 
[Cb cap|Ac As]
+22.1 +18.3 79 +37  1006.4  0.5  753  276           
21 19.07.18 360 (С) 10 км    10/0 средняя 
[Ac As]
+21.7 +18.7 83 +37  1005.7  -0.6  752  276           
03 20.07.18 030 (СВ) 10 км  {ливн. осадки}  10/6 1000 м кучево-дожд., средняя 
[Cb cap|Ac As]
+21.4 +18.1 81 +36  1004.9  752  277  +19.4      влажная 
06 20.07.18 070 (В) 10 км  {ливн. осадки}  10/10 600 м 
[Sc]
+23.7 +19.4 77 +41  1005.2  0.2  752  274           
09 20.07.18 140 (ЮВ) 10 км  {дождь}  9/9 600 м 
[Sc]
+26.2 +19 65 +43  1005.4  0.3  752  272           
18 20.07.18 320 (СЗ) 10 км    8/0 средняя, верхняя 
[Ac As|Ci sp]
+23.6 +19.8 79 +42  1004.5  751  274           
21 20.07.18 020 (С) 10 км  зарница  6/4 1000 м кучево-дожд., средняя 
[Cb calv|Ac As]
+20.8 +19.9 95 +39  1004  -0.5  751  276           
00 21.07.18 330 (СЗ) 10 км    6/0 средняя 
[Ac As]
+19 +17.4 90 +34  1003.7  -0.3  751  279           
03 21.07.18 230 (ЮЗ) 10 км    4/0 средняя, верхняя 
[Ac lent|Ci fib]
+20.9 +19.4 91 +38  1004.2  0.6  751  276  +18.2        влажная 
06 21.07.18 360 (С) 10 км    8/0 средняя, верхняя 
[Ac As|Ci sp]
+29 +19.1 55 +46  1004.2  751  269           
09 21.07.18 140 (ЮВ) 10 км  гроза без осадков  8/5 1000 м кучево-дожд., средняя, верхняя 
[Cb calv|Ac cast|Ci fib]
+30.6 +15.9 41 +41  1003.7  -0.4  751  269           
15 21.07.18 020 (С) 10 км  {гроза}  8/4 1000 м кучево-дожд., средняя, верхняя 
[Cb cap|Ac As|Ci fib]
+26.1 +19.5 67 +44  1004  751  272    +30.6  20     
18 21.07.18 120 (ЮВ) 10 км  в посл. час дождь{гроза}  8/3 1000 м кучево-дожд., средняя, верхняя 
[Cb calv|Ac trans|Ci sp]
+22.1 +20.3 90 +41  1004.7  0.6  751  275           
21 21.07.18 070 (В) 10 км    3/0 средняя 
[Ac lent]
+20.3 +19.7 96 +38  1004.9  0.2  752  277           
00 22.07.18 030 (СВ) 10 км    3/0 средняя 
[Ac lent]
+18.5 +17.4 93 +33  1004.5  -0.4  751  280           
03 22.07.18 080 (В) 10 км    9/9 900 м 
[Sc]
+21 +20.2 95 +40  1005.1  0.6  752  276  +18.3    0.3    влажная 
06 22.07.18 030 (СВ) 10 км    3/3 1000 м средняя 
[Cu med, cong|Ac trans]
+26.6 +21 71 +48  1005.1  -0.1  752  271           
09 22.07.18 170 (Ю) 10 км    8/6 1000 м верхняя 
[Cu med, cong|Ci sp]
+30.3 +18.2 48 +45  1004.9  -0.2  752  269           
15 22.07.18 070 (В) 2{10}  10 км  {гроза, ливн. осадки}  8/3 1000 м кучево-дожд., средняя, верхняя 
[Cb cap|Ac cast|Ci sp]
+25.4 +22.7 85 +51  1005.2  0.4  752  271    +32.1  17     
18 22.07.18 080 (В) 10 км  {гроза}  4/0 средняя 
[Ac As]
+23.3 +19.6 80 +41  1006.1  0.9  752  275           
21 22.07.18 090 (В) 10 км    3/0 средняя 
[Ac As]
+21.4 +17.9 80 +35  1006.3  -0.1  753  277           
00 23.07.18 090 (В) 10 км    4/0 средняя 
[Ac As]
+20.3 +17.8 86 +34  1006.9  0.6  753  278           
03 23.07.18 110 (В) 10 км    8/0 средняя, верхняя 
[Ac As|Ci sp]
+21.4 +17.3 77 +34  1007.9  754  278  +20.1        влажная 
Время (UTC), дата Ветер
(°,м/с) 
Видим.   Явления Облачность Т
(°С)
Тd
(°С)
f(%) Тe
(°С)
Pmin
(гПа)
dP
(гПа)
Po
(мм)
O2
(г/м3)
Тmin Tmax R s Состояние
почвы

Для получения пояснительной информации подведите курсор к названию столбца.

ПОГОДА Александров Гай - архив

Всё, что Вы хотите узнать о погоде Александров Гай - удобно и подробно!

Выберите нужную дату (начиная с 1 января 2015* года) и нажмите кнопку "Найти".
Будут отображены архивные сводки погоды по пункту Александров Гай, начиная с указанной даты.


Отображать данные в формате CSV (для использования в таблицах Excel)


Внимание! Наш архив погоды предназначен исключительно для личного некоммерческого использования в познавательных целях. Если Вам необходимы официальные справки о состоянии погоды (для производственных, юридических, коммерческих и т.п. целей), обращайтесь в органы Росгидромета.

*Примечание: данная дата относится к архиву по метеостанциям СССР (Россия, СНГ, Балтия).
Архив по метеостанциям Зарубежной Европы и Азии (кроме Китая) хранится 10 дней, по другим регионам земного шара (Китай, Африка, Америка, Австралия, Океания) - 1 день.

Александров Гай - район местоположения метеостанции


Название, широта, долгота, высота метеостанции:
Александров Гай 50.2°ш. 48.6°д. 25 м над ур. моря [Российская Федерация]

Дополнительная информация

В oтличие oт бoльшинства пoгoдных сайтoв мы публикуем пoдрoбную метеoинфoрмацию в детальнoм прoфессиoнальнoм фoрмате.

Характеристики температуры и влажнoсти вoздуха измеряются на высoте 2 м в тени вдали oт зданий и деревьев.
Скoрoсть ветра измеряется на высoте 10 м (на урoвне рoста челoвека скoрoсть ветра ниже в 1.5-2 раза). Если метеoстанция нахoдится в гoрoде или в лесу, тo скoрoсть ветра занижена на 2-4 м/с пo сравнению с oткрытым местoм. Скoрoсть ветра над акватoриями крупных рек и oзёр, а также на вершинах хoлмoв на 2-5 м/с выше, чем в oбычных услoвиях.
Атмoсфернoе давление в разных тoчках местнoсти мoжет значительнo oтличаться oт давления на метеoстанции, в зависимoсти oт услoвий рельефа (при пoдъёме на 10 м давление пoнижается примернo на 1 мм рт.ст.).